Oscoda, MI

2:56 AM EST on December 09, 2019 (GMT -0500)
Oscoda-Wurtsmith

Weather History for KOSC - October, 2019

Change the Weather History Date:

Wednesday, October 30, 2019

  Actual Average Record
Temperature  
Mean Temperature 42 °F -  
Max Temperature 47 °F 49 °F 71 °F (1999)
Min Temperature 38 °F 34 °F 21 °F (2008)
Degree Days  
Heating Degree Days 22    
Moisture  
Dew Point 40 °F    
Average Humidity 92    
Maximum Humidity 100    
Minimum Humidity 76    
Precipitation  
Precipitation 0.09 in - - ()
Sea Level Pressure  
Sea Level Pressure 30.19 in    
Wind  
Wind Speed 5 mph ()    
Max Wind Speed 16 mph    
Max Gust Speed 23 mph    
Visibility 8.4 miles    
Events Rain    
Averages and records for this station are not official NWS values.
T = Trace of Precipitation, MM = Missing Value Source: Averaged Metar Reports

Daily Weather History Graph

Daily Weather History Graph

Search for Another Location

Airport or City:

Astronomy

Oct. 30, 2019 Rise Set
Actual Time 8:07 AM EDT 6:25 PM EDT
Civil Twilight 7:37 AM EDT 6:55 PM EDT
Nautical Twilight 7:03 AM EDT 7:30 PM EDT
Astronomical Twilight 6:29 AM EDT 8:03 PM EDT
Moon 10:54 AM EDT (10/30) 8:27 PM EDT (10/30)
Length of Visible Light 11h 18m
Length of Day
10h 17m
Waxing Crescent, 8% of the Moon is Illuminated
Oct 30
Waxing Crescent
Nov 4
First Quarter
Nov 12
Full
Nov 19
Last Quarter
Nov 26
New

Hourly Weather History & Observations

Time (EDT) Temp. Windchill Dew Point Humidity Pressure Visibility Wind Dir Wind Speed Gust Speed Precip Events Conditions
12:00 AM 42.3 °F - 40.1 °F 92% 30.24 in 10.0 mi Calm Calm - N/A   Overcast
12:18 AM 41.9 °F - 39.6 °F 91% 30.25 in 10.0 mi Calm Calm - N/A   Overcast
12:36 AM 41.9 °F - 39.2 °F 90% 30.26 in 10.0 mi Calm Calm - N/A   Overcast
12:55 AM 41.5 °F 39.6 °F 38.8 °F 90% 30.26 in 10.0 mi West 3.5 mph - N/A   Overcast
1:15 AM 41.2 °F - 38.7 °F 91% 30.26 in 10.0 mi Calm Calm - N/A   Overcast
1:39 AM 40.8 °F 38.8 °F 38.5 °F 91% 30.26 in 10.0 mi NW 3.5 mph - N/A   Overcast
1:57 AM 39.9 °F 36.7 °F 37.8 °F 92% 30.26 in 10.0 mi NW 4.6 mph - N/A   Overcast
2:16 AM 38.3 °F - 36.9 °F 95% 30.27 in 10.0 mi Calm Calm - N/A   Mostly Cloudy
2:35 AM 39.2 °F 37.0 °F 38.1 °F 96% 30.28 in 10.0 mi WNW 3.5 mph - N/A   Overcast
2:36 AM 39.2 °F 37.0 °F 37.9 °F 95% 30.28 in 10.0 mi NW 3.5 mph - N/A   Overcast
2:55 AM 38.7 °F 35.2 °F 37.8 °F 97% 30.27 in 10.0 mi NW 4.6 mph - N/A   Overcast
3:00 AM 38.8 °F 35.4 °F 37.8 °F 96% 30.27 in 10.0 mi NNW 4.6 mph - N/A   Overcast
3:18 AM 39.4 °F 35.2 °F 37.4 °F 93% 30.27 in 10.0 mi NNW 5.8 mph - N/A   Overcast
3:36 AM 39.4 °F 37.2 °F 37.6 °F 93% 30.28 in 10.0 mi NNW 3.5 mph - N/A   Overcast
3:55 AM 39.2 °F 35.9 °F 37.6 °F 94% 30.29 in 10.0 mi NW 4.6 mph - N/A   Overcast
4:15 AM 39.4 °F 36.1 °F 37.4 °F 93% 30.28 in 10.0 mi NNW 4.6 mph - N/A   Overcast
4:16 AM 39.4 °F 35.2 °F 37.4 °F 93% 30.28 in 10.0 mi NNW 5.8 mph - N/A   Overcast
4:39 AM 39.4 °F 34.5 °F 37.0 °F 91% 30.29 in 10.0 mi NW 6.9 mph - N/A   Overcast
4:57 AM 39.2 °F 35.9 °F 36.9 °F 91% 30.29 in 10.0 mi NW 4.6 mph - N/A   Overcast
5:15 AM 39.2 °F 35.9 °F 36.9 °F 91% 30.29 in 10.0 mi NW 4.6 mph - N/A   Overcast
5:35 AM 38.8 °F 36.5 °F 36.7 °F 92% 30.29 in 10.0 mi NNW 3.5 mph - N/A   Overcast
5:36 AM 38.8 °F 35.4 °F 36.7 °F 92% 30.29 in 10.0 mi NNW 4.6 mph - N/A   Overcast
5:55 AM 38.8 °F 35.4 °F 36.9 °F 93% 30.29 in 10.0 mi NNW 4.6 mph - N/A   Overcast
5:59 AM 38.8 °F 35.4 °F 36.9 °F 93% 30.29 in 10.0 mi NNW 4.6 mph - N/A   Overcast
6:18 AM 39.0 °F - 36.7 °F 91% 30.30 in 10.0 mi Calm Calm - N/A   Overcast
6:36 AM 39.0 °F - 36.5 °F 91% 30.31 in 10.0 mi Calm Calm - N/A   Overcast
6:55 AM 38.8 °F - 36.5 °F 91% 30.31 in 10.0 mi Calm Calm - N/A   Overcast
7:15 AM 38.7 °F - 36.5 °F 92% 30.29 in 10.0 mi Calm Calm - N/A   Overcast
7:57 AM 39.2 °F 35.9 °F 36.1 °F 89% 30.27 in 10.0 mi North 4.6 mph - N/A   Overcast
8:15 AM 39.2 °F 35.9 °F 36.0 °F 88% 30.28 in 10.0 mi NNW 4.6 mph - N/A   Overcast
8:35 AM 38.7 °F - 36.1 °F 91% 30.28 in 10.0 mi Calm Calm - N/A   Mostly Cloudy
8:55 AM 39.2 °F - 36.1 °F 89% 30.28 in 10.0 mi Calm Calm - N/A   Overcast
9:00 AM 39.2 °F - 36.1 °F 89% 30.28 in 10.0 mi Calm Calm - N/A   Overcast
9:18 AM 39.2 °F 37.0 °F 36.1 °F 89% 30.28 in 10.0 mi NNW 3.5 mph - N/A   Overcast
9:36 AM 39.6 °F - 36.5 °F 89% 30.28 in 10.0 mi Calm Calm - N/A   Overcast
9:55 AM 40.1 °F - 36.7 °F 88% 30.28 in 10.0 mi Calm Calm - N/A   Overcast
10:15 AM 40.8 °F 38.8 °F 37.0 °F 86% 30.29 in 10.0 mi NNW 3.5 mph - N/A   Overcast
10:16 AM 41.0 °F 39.0 °F 37.0 °F 86% 30.29 in 10.0 mi NNW 3.5 mph - N/A   Overcast
10:39 AM 41.2 °F 39.2 °F 37.4 °F 86% 30.28 in 10.0 mi North 3.5 mph - N/A   Overcast
10:57 AM 41.9 °F 40.0 °F 37.8 °F 85% 30.29 in 10.0 mi North 3.5 mph - N/A   Overcast
11:15 AM 42.8 °F 40.1 °F 38.8 °F 86% 30.29 in 10.0 mi North 4.6 mph - N/A   Overcast
11:16 AM 42.8 °F 40.1 °F 38.8 °F 86% 30.29 in 10.0 mi North 4.6 mph - N/A   Overcast
11:35 AM 43.3 °F 40.7 °F 39.2 °F 85% 30.28 in 10.0 mi North 4.6 mph - N/A   Overcast
11:55 AM 45.0 °F 41.8 °F 40.1 °F 83% 30.27 in 10.0 mi North 5.8 mph - N/A   Overcast
12:18 PM 45.5 °F 41.8 °F 40.3 °F 82% 30.26 in 10.0 mi NNE 6.9 mph - N/A   Overcast
12:36 PM 46.4 °F 43.5 °F 40.3 °F 79% 30.26 in 10.0 mi North 5.8 mph - N/A   Overcast
12:55 PM 47.3 °F - 40.1 °F 76% 30.24 in 10.0 mi ENE 9.2 mph - N/A   Overcast
1:15 PM 46.4 °F 41.5 °F 40.3 °F 79% 30.23 in 10.0 mi ENE 10.4 mph - N/A   Overcast
1:39 PM 45.1 °F 40.3 °F 41.4 °F 87% 30.22 in 7.0 mi ENE 9.2 mph - N/A   Overcast
1:57 PM 44.2 °F 40.3 °F 41.2 °F 89% 30.21 in 5.0 mi NNE 6.9 mph - N/A Rain Light Rain
2:15 PM 44.6 °F 40.2 °F 42.6 °F 93% 30.20 in 10.0 mi NE 8.1 mph - N/A Rain Light Rain
2:35 PM 44.1 °F 39.0 °F 42.1 °F 93% 30.20 in 4.0 mi NNE 9.2 mph - N/A   Drizzle
2:36 PM 44.1 °F 39.5 °F 42.1 °F 93% 30.20 in 4.0 mi NE 8.1 mph - N/A   Drizzle
2:55 PM 44.2 °F 39.7 °F 42.6 °F 94% 30.18 in 3.0 mi NNE 8.1 mph - N/A Rain Light Rain
3:00 PM 44.6 °F 40.2 °F 43.2 °F 95% 30.18 in 4.0 mi NNE 8.1 mph - N/A Rain Light Rain
3:18 PM 44.6 °F 39.2 °F 43.5 °F 96% 30.17 in 5.0 mi NNE 10.4 mph - N/A Rain Rain
3:36 PM 44.4 °F 39.0 °F 43.7 °F 97% 30.16 in 5.0 mi NE 10.4 mph - N/A Rain Light Rain
3:55 PM 44.6 °F 39.7 °F 44.4 °F 99% 30.16 in 10.0 mi NE 9.2 mph - 0.01 in Rain Rain
4:15 PM 45.1 °F 42.0 °F 45.0 °F 99% 30.14 in 10.0 mi ENE 5.8 mph - N/A   Drizzle
4:16 PM 45.1 °F 42.0 °F 45.0 °F 99% 30.14 in 10.0 mi ENE 5.8 mph - N/A   Drizzle
4:39 PM 45.3 °F 41.6 °F 44.4 °F 97% 30.13 in 7.0 mi NE 6.9 mph - N/A Rain Light Rain
4:57 PM 45.5 °F 41.8 °F 45.0 °F 98% 30.13 in 10.0 mi ENE 6.9 mph - 0.01 in Rain Light Rain
5:15 PM 45.1 °F 40.3 °F 44.4 °F 97% 30.13 in 7.0 mi NE 9.2 mph - N/A Rain Light Rain
5:35 PM 45.1 °F 40.8 °F 44.6 °F 98% 30.12 in 10.0 mi NE 8.1 mph - N/A   Drizzle
5:36 PM 45.1 °F 40.8 °F 44.6 °F 98% 30.12 in 10.0 mi NE 8.1 mph - N/A   Drizzle
5:55 PM 45.1 °F 40.8 °F 44.6 °F 98% 30.11 in 10.0 mi NE 8.1 mph - N/A   Light Drizzle
6:00 PM 45.3 °F 41.6 °F 44.6 °F 97% 30.11 in 7.0 mi ENE 6.9 mph - N/A Rain Light Rain
6:18 PM 45.1 °F 42.0 °F 43.7 °F 95% 30.10 in 7.0 mi ENE 5.8 mph - N/A   Overcast
6:36 PM 45.0 °F 41.2 °F 43.2 °F 93% 30.09 in 10.0 mi NE 6.9 mph - N/A   Overcast
6:55 PM 45.0 °F 42.6 °F 43.5 °F 95% 30.09 in 10.0 mi NE 4.6 mph - N/A   Overcast
6:56 PM 45.0 °F 41.8 °F 43.3 °F 94% 30.09 in 10.0 mi NE 5.8 mph - N/A   Overcast
7:15 PM 45.0 °F 41.2 °F 43.2 °F 93% 30.08 in 10.0 mi NE 6.9 mph - N/A   Overcast
7:16 PM 45.0 °F 41.2 °F 43.2 °F 93% 30.08 in 10.0 mi NNE 6.9 mph - N/A   Overcast
7:39 PM 45.5 °F 39.9 °F 43.3 °F 92% 30.07 in 7.0 mi East 11.5 mph - 0.01 in   Overcast
7:56 PM 45.3 °F 39.7 °F 43.2 °F 92% 30.06 in 5.0 mi ENE 11.5 mph - 0.01 in   Unknown
8:15 PM 45.1 °F 40.3 °F 43.0 °F 92% 30.06 in 7.0 mi ENE 9.2 mph - N/A Rain Light Rain
8:16 PM 45.1 °F 40.3 °F 43.0 °F 92% 30.07 in 7.0 mi ENE 9.2 mph - N/A Rain Light Rain
8:35 PM 45.3 °F 40.1 °F 43.0 °F 92% 30.06 in 7.0 mi ENE 10.4 mph - N/A   Heavy Drizzle
8:55 PM 45.1 °F 39.9 °F 43.2 °F 93% 30.04 in 5.0 mi ENE 10.4 mph - N/A Rain Rain
9:18 PM 45.0 °F 39.7 °F 43.2 °F 93% 30.04 in 7.0 mi ENE 10.4 mph - 0.01 in Rain Light Rain
9:36 PM 44.8 °F 38.7 °F 43.9 °F 97% 30.03 in 5.0 mi ENE 12.7 mph 18.4 mph 0.02 in Rain Light Rain
9:55 PM 44.8 °F 38.3 °F 44.1 °F 97% 30.02 in 5.0 mi NE 13.8 mph 18.4 mph 0.03 in Rain Light Rain
9:56 PM 44.8 °F 39.0 °F 44.1 °F 97% 30.02 in 5.0 mi NE 11.5 mph 18.4 mph 0.03 in Rain Light Rain
10:15 PM 44.6 °F 38.1 °F 44.1 °F 98% 30.02 in 5.0 mi NE 13.8 mph - 0.01 in Rain Light Rain
10:16 PM 44.6 °F 37.8 °F 44.1 °F 98% 30.02 in 5.0 mi ENE 15.0 mph - 0.01 in Rain Light Rain
10:39 PM 44.6 °F 38.4 °F 44.1 °F 98% 30.01 in 1.8 mi NE 12.7 mph 19.6 mph 0.01 in Rain Light Rain
10:57 PM 44.4 °F 37.9 °F 44.1 °F 99% 30.01 in 1.5 mi NE 13.8 mph 17.3 mph 0.02 in Rain Light Rain
11:15 PM 44.2 °F 37.3 °F 44.2 °F 100% 29.99 in 3.0 mi ENE 15.0 mph - N/A   Unknown
11:16 PM 44.2 °F 37.0 °F 44.2 °F 100% 29.99 in 3.0 mi ENE 16.1 mph - N/A   Unknown
11:35 PM 44.1 °F 36.8 °F 43.7 °F 99% 29.98 in 5.0 mi ENE 16.1 mph 19.6 mph N/A Rain Light Rain
11:55 PM 43.9 °F 36.5 °F 43.5 °F 99% 29.97 in 7.0 mi NE 16.1 mph 23.0 mph 0.01 in Rain Light Rain